Location: �terpigny
(49.8910°N, 2.9249°E)
Time: 15:08:27
(UTC+00:00)

USA 215 - Pass Details

Date: 24 October 2021
Orbit: 1099 x 1109 km, 123.0° (Epoch: 20 November)

Event Time Altitude Azimuth Distance (km) Brightness Sun altitude
Exits shadow 17:21:14 - 57° (ENE) 3,338 5.2 -7.4°
Reaches altitude 10° 17:22:12 10° 58° (ENE) 2,965 5.0 -7.5°
Maximum altitude 17:28:47 83° 146° (SE) 1,117 3.3 -8.6°
Drops below altitude 10° 17:35:21 10° 235° (SW) 2,961 6.6 -9.6°
Sets 17:37:49 0° 236° (WSW) 3,918 7.4 -10.0°
